Regional Weather Roundup
Issued by NWS Little Rock, AR

Home | Current Version | Previous Version | Graphics & Text | Print | Product List | Glossary On
Versions: 1 2 3 4 5 6 7 8 9 10 11 12 13 14 15 16 17 18 19 20 21 22 23 24 25 26 27 28 29 30 31 32 33 34 35 36 37 38 39 40 41 42 43 44 45 46 47 48 49 50
000
ASUS44 KLZK 040205
RWRLZK

WEATHER ROUNDUP FOR ARKANSAS
NATIONAL WEATHER SERVICE LITTLE ROCK AR
900 PM CDT THU SEP 03 2015

NOTE: "FAIR" INDICATES FEW OR NO CLOUDS BELOW 12,000 FEET WITH NO
SIGNIFICANT WEATHER AND/OR OBSTRUCTIONS TO VISIBILITY.

ARZ001-003-010-029-040300-
NORTHWEST ARKANSAS

CITY           SKY/WX    TMP DP  RH WIND       PRES   REMARKS
FAYETTEVILLE   CLEAR     73  71  93 CALM      29.95R
FORT SMITH     CLEAR     83  67  58 SE3       29.89R HX  85
HARRISON       CLEAR     75  68  78 CALM      29.97R
BENTONVILLE    CLEAR     77  64  65 CALM      29.96R
ROGERS         CLEAR     76  68  76 SE3       29.96R
SILOAM SPGS    PTCLDY    77  64  65 SE3       29.93R
HIGHFILL       CLEAR     76  70  82 CALM      29.94R
SPRINGDALE     CLEAR     77  68  73 E3        29.96R
$$

ARZ004-005-016-040300-
NORTH CENTRAL ARKANSAS

CITY           SKY/WX    TMP DP  RH WIND       PRES   REMARKS
BATESVILLE     CLEAR     81  70  69 SE5       29.93R
FLIPPIN        CLEAR     79  64  61 CALM      29.93R
MTN HOME       CLEAR     80  67  64 SE3       29.94R
$$

ARZ040-041-040300-
WEST CENTRAL ARKANSAS

CITY           SKY/WX    TMP DP  RH WIND       PRES   REMARKS
MENA           CLEAR     79  68  69 CALM      29.94R
MOUNT IDA      CLEAR     79  66  64 CALM      29.91R
$$

ARZ009-017-025-026-028-040300-
NORTHEAST ARKANSAS

CITY           SKY/WX    TMP DP  RH WIND       PRES   REMARKS
JONESBORO      CLEAR     75  72  90 CALM      29.93R
NEWPORT        CLEAR     79  72  79 E5        29.94R
WALNUT RIDGE   CLEAR     79  68  69 S5        29.93R
BLYTHEVILLE    CLEAR     82  72  71 CALM      29.94R HX  87
$$

ARZ022-023-033-042-044-040300-
CENTRAL ARKANSAS

CITY           SKY/WX    TMP DP  RH WIND       PRES   REMARKS
LITTLE ROCK    CLEAR     83  68  60 SE5       29.91R HX  86
N LITTLE ROCK  CLEAR     84  70  63 SE6       29.91R HX  88
JACKSONVILLE   CLEAR     77  70  80 NE1       29.91R
SEARCY         CLEAR     77  72  84 CALM      29.94R
HOT SPRINGS    CLEAR     80  67  64 E3        29.92R
RUSSELLVILLE   CLEAR     79  69  71 SE3       29.90R
$$

ARZ036-040300-
EAST ARKANSAS

CITY           SKY/WX    TMP DP  RH WIND       PRES   REMARKS
WEST MEMPHIS   CLEAR     77  73  87 CALM      29.92R
$$

ARZ050-053-066-070-073-040300-
SOUTHWEST ARKANSAS

CITY           SKY/WX    TMP DP  RH WIND       PRES   REMARKS
ARKADELPHIA    FAIR      77  73  87 CALM      29.91R
CAMDEN         CLEAR     77  68  73 CALM      29.89R
TEXARKANA      CLEAR     79  67  66 CALM      29.90R
EL DORADO      CLEAR     79  69  71 CALM      29.90R
DE QUEEN       CLEAR     78  70  76 CALM      29.88R
$$

ARZ056-057-069-040300-
SOUTHEAST ARKANSAS

CITY           SKY/WX    TMP DP  RH WIND       PRES   REMARKS
PINE BLUFF     CLEAR     78  71  79 CALM      29.91R
STUTTGART      CLEAR     84  66  54 E3        29.93R HX  86
MONTICELLO     PTCLDY    83  73  72 CALM      29.91R HX  89

$$




USA.gov is the U.S. government's official web portal to all federal, state and local government web resources and services.